This demonstration page uses our WeatherBlox Daily Observations layout. Learn more.

39.92423, -83.80882

Hourly Observations for May 15, 2016

Temp ( °F °C ) Dew Point ( °F °C ) Humidity (%) Winds ( mph kmh ) Pressure ( in mb ) Visibility ( mi km ) Precip ( " mm )
12:56 am 00:56 Cloudy 42 5.5 36 2.2 80 80 SW 7 11 30.06 1018 10 16.0934 0 0
1:56 am 01:56 Cloudy 42 5.5 37 2.7 82 82 WSW 5 7 30.06 1018 10 16.0934 0 0
2:56 am 02:56 Cloudy 42 5.5 36 2.2 80 80 WSW 8 13 30.05 1018 10 16.0934 0 0
3:56 am 03:56 Cloudy 43 6.1 37 2.7 79 79 W 6 9 30.05 1018 10 16.0934 0 0
4:56 am 04:56 Cloudy 43 6.1 37 2.7 79 79 W 5 7 30.05 1018 10 16.0934 0 0
5:56 am 05:56 Cloudy 40 4.4 37 2.7 89 89 NW 5 7 30.06 1018 10 16.0934 0 0.0254
6:56 am 06:56 Cloudy 40 4.4 37 2.7 89 89 WSW 3 6 30.07 1018 10 16.0934 0 0
7:56 am 07:56 Mostly Cloudy 42 5.5 37 2.7 82 82 W 8 13 30.09 1019 10 16.0934 0 0
8:07 am 08:07 Mostly Cloudy 43 6 36 2 76 76 W 8 13 30.12 1020 10 16.0934 0 0
8:36 am 08:36 Mostly Cloudy 43 6 34 1 71 71 W 9 15 30.12 1020 10 16.0934 0 0
8:56 am 08:56 Partly Cloudy 44 6.6 33 0.5 65 65 W 10 17 30.1 1019 10 16.0934 0 0
9:56 am 09:56 Mostly Sunny 47 8.3 31 -0.5 54 54 W 15 24 30.11 1020 10 16.0934 0 0
10:56 am 10:56 Partly Cloudy 48 8.8 29 -1.6 48 48 W 20 31 30.11 1020 10 16.0934 0 0
11:56 am 11:56 Partly Cloudy 49 9.4 28 -2.2 44 44 W 16 26 30.12 1020 10 16.0934 0 0
12:56 pm 12:56 Partly Cloudy 51 10.5 30 -1.1 45 45 WNW 10 17 30.11 1020 10 16.0934 0 0
1:56 pm 13:56 Partly Cloudy 53 11.6 30 -1.1 42 42 W 12 19 30.1 1019 10 16.0934 0 0
2:56 pm 14:56 Mostly Cloudy 52 11.1 30 -1.1 43 43 W 14 22 30.1 1019 10 16.0934 0 0
3:56 pm 15:56 Mostly Cloudy 54 12.2 31 -0.5 42 42 W 16 26 30.09 1019 10 16.0934 0 0
4:56 pm 16:56 Mostly Cloudy 54 12.2 31 -0.5 42 42 W 18 30 30.09 1019 10 16.0934 0 0
5:56 pm 17:56 Partly Cloudy 54 12.2 31 -0.5 42 42 W 17 28 30.1 1019 10 16.0934 0 0
6:56 pm 18:56 Partly Cloudy 53 11.6 31 -0.5 43 43 W 15 24 30.11 1020 10 16.0934 0 0
7:56 pm 19:56 Mostly Sunny 51 10.5 35 1.6 54 54 NW 15 24 30.13 1020 10 16.0934 0 0
8:56 pm 20:56 Clear 46 7.7 27 -2.7 48 48 WNW 15 24 30.16 1022 10 16.0934 0 0
9:56 pm 21:56 Clear 43 6.1 27 -2.7 54 54 WNW 10 17 30.21 1023 10 16.0934 0 0
10:56 pm 22:56 Clear 41 5 28 -2.2 60 60 W 7 11 30.23 1024 10 16.0934 0 0
11:56 pm 23:56 Clear 39 3.8 28 -2.2 65 65 W 5 7 30.24 1024 10 16.0934 0 0

Powered by AerisWeather